Regional Weather Roundup
Issued by NWS

Home | Current Version | Previous Version | Graphics & Text | Print | Product List | Glossary On
Versions: 1 2 3 4 5 6 7 8 9 10 11 12 13 14 15 16 17 18 19 20 21 22 23 24 25 26 27 28 29 30 31 32 33 34 35 36 37 38 39 40 41 42 43 44 45 46 47 48 49 50
000
ASUS45 KBOU 200410
RWRCO

WEATHER ROUNDUP FOR COLORADO
NATIONAL WEATHER SERVICE DENVER/BOULDER CO
900 PM MST SUN NOV 19 2017

NOTE: "FAIR" INDICATES FEW OR NO CLOUDS BELOW 12000 FEET WITH NO
SIGNIFICANT WEATHER AND/OR OBSTRUCTIONS TO VISIBILITY.

COZ001>005-013-030-031-200500-
...NORTHWEST COLORADO...

CITY           SKY/WX    TMP DP  RH WIND       PRES   REMARKS
CRAIG          FAIR      17  12  80 W3        30.18R
HAYDEN         FAIR      25  17  72 E7        30.18S WCI  17
MEEKER         FAIR      24  14  65 NE5       30.18S WCI  18
RABBIT EARS PA FAIR      19  10  68 W8        30.17R WCI   9
STEAMBOAT SPGS FAIR      21  17  81 CALM      30.17F
WALDEN         FAIR      30   5  34 SW13G20   30.11R WCI  20
$$

COZ006>008-011-200500-
...WEST CENTRAL VALLEYS...

CITY           SKY/WX    TMP DP  RH WIND       PRES   REMARKS
GRAND JUNCTION FAIR      28  13  53 SE6       30.22S WCI  22
MONTROSE       FAIR      25  20  81 SE7       30.26R WCI  17
EAGLE          FAIR      23  17  78 CALM      30.24R
RIFLE          FAIR      25  20  81 E5        30.24R WCI  19
DELTA          FAIR      29  16  57 E5        30.24S WCI  24
NUCLA          FAIR      30   5  34 SE9       30.26R WCI  22
$$

COZ017>023-064>068-200500-
...SOUTHWEST COLORADO...

CITY           SKY/WX    TMP DP  RH WIND       PRES   REMARKS
DURANGO        FAIR      25  13  60 CALM      30.21S
CORTEZ         FAIR      21  11  65 NE9       30.23S WCI  11
PAGOSA SPRINGS FAIR      27  15  60 CALM      30.24R
TELLURIDE      FAIR      31   5  33 SE7       30.28R WCI  24
WOLF CREEK PAS FAIR      23   7  50 SW10      30.33R WCI  12
$$

COZ009-010-012-014-032>034-037-058>063-200500-
...CENTRAL COLORADO...

CITY           SKY/WX    TMP DP  RH WIND       PRES   REMARKS
ASPEN          FAIR      20  13  74 S8        30.21R WCI  10
BUENA VISTA    FAIR      32   8  36 NW14      30.15R WCI  22
COPPER MTN     FAIR      23  -8  25 MISG      30.21F
BERTHOUD PASS  FAIR      19   9  63 NW47G59   30.11S WCI  -3
COTTONWOOD PAS FAIR      37 -15  10 NW14G29   30.17R
GUNNISON       FAIR      17  14  88 N3        30.27R
KREMMLING      FAIR      23  14  68 CALM      30.18R
LEADVILLE      FAIR      17   1  49 NE8       30.17F WCI   7
MONARCH PASS   FAIR      21   0  39 W38       30.31F WCI   1
SALIDA         FAIR      34   7  31 N5        30.21S WCI  30
SUNLIGHT       FAIR      21  -2  35 SW9G22    30.28S WCI  11
WILKERSON PASS FAIR      27  -9  20 W9G20     30.21S WCI  17
$$

COZ069>075-200500-
...SAN LUIS VALLEY/SANGRE DE CRISTO MOUNTAINS...

CITY           SKY/WX    TMP DP  RH WIND       PRES   REMARKS
ALAMOSA        FAIR      18   7  62 NE8       30.18R WCI   8
DEL NORTE      FAIR      25   7  46 W13       30.20R WCI  13
LA VETA PASS   FAIR      28   0  29 SW30G37     N/A  WCI  13
SAGUACHE       FAIR      23   0  36 NW10      30.19F WCI  12
$$

COZ035-036-038>040-200500-
...NORTHERN COLORADO FRONT RANGE...

CITY           SKY/WX    TMP DP  RH WIND       PRES   REMARKS
DENVER INTL AP MOCLDY    46   8  21 S5        29.96F
DMNS CITY PARK   N/A     44  11  26 E9G17     29.97F
AURORA         PTCLDY    40  14  34 S7        29.97F
FRONT RANGE AP FAIR      47  13  25 SW12G20   29.97F
ERIE MUNI ARPT FAIR      51  -5  10 SW10      30.01S
BOULDER MUN AP FAIR      52   1  12 S5        29.94F
CENTENNIAL     MOCLDY    46   8  21 SW12      29.98F
BROOMFIELD     MOCLDY    48  -2  12 S5        29.97F
FORT COLLINS   FAIR      46   7  20 CALM      29.93F
LONGMONT       FAIR      49   4  16 SW8       29.94F
$$

COZ041-046-047-076>085-087-088-200500-
...PIKES PEAK/PALMER DIVIDE AND SOUTHERN FOOTHILLS...

CITY           SKY/WX    TMP DP  RH WIND       PRES   REMARKS
COLO. SPRINGS  MOCLDY    51  -3  10 W13       30.03S
A. F. ACADEMY  FAIR      45  -1  14 W3        30.02F
SCHRIEVER AFB  MOCLDY    45   0  15 NW6       30.01F
CHEYENNE MTN   MOCLDY    44   4  19 CALM      29.99R
ELLICOTT       NOT AVBL
FALCON         FAIR      43  -2  15 W17       30.03F
FORT CARSON    FAIR      40  18  41 NW5       30.00R
LIMON          FAIR      24  15  68 CALM      29.98F
MONUMENT HILL  FAIR      36  10  35 SW8       30.04F
CANON CITY     FAIR      43  10  26 W6        30.02F
WALSENBURG     FAIR      46   7  19 W22       30.04F
TRINIDAD       FAIR      33  19  56 NW12      30.04S WCI  24
$$

COZ042>045-048>051-090-091-200500-
...NORTHEAST COLORADO...

CITY           SKY/WX    TMP DP  RH WIND       PRES   REMARKS
GREELEY ARPT   FAIR      31  24  75 NE6       29.94R WCI  25
AKRON          FAIR      42  13  30 SW15      29.93F
BURLINGTON     FAIR      29  14  53 SW9       29.97R WCI  20
WRAY           NOT AVBL
YUMA           FAIR      32  19  59 SW13      29.91F WCI  22
STERLING       FAIR      28  19  69 S3        29.91S
HOLYOKE        FAIR      32  18  55 W12       29.90F WCI  23
FORT MORGAN    FAIR      35  17  47 SW5       29.93F WCI  31
$$

COZ086-089-092>099-200500-
...SOUTHEAST COLORADO...

CITY           SKY/WX    TMP DP  RH WIND       PRES   REMARKS
PUEBLO         FAIR      45  13  27 W12       29.98S
LA JUNTA       FAIR      42  20  41 SW15      29.96S
LAMAR          FAIR      30  15  53 W6        29.93F WCI  24
SPRINGFIELD      N/A     30  16  56 VRB3      29.98F
$$



USA.gov is the U.S. government's official web portal to all federal, state and local government web resources and services.